Snowfall_Accumulation
0.0 0.0 0.0 0.0 0.0 0.0 0.0 0.0 0.0 0.0 0.0 0.0 0.0 0.0 0.0 0.0 0.0 0.0 0.0 0.0 0.0 0.0 0.0 0.0 0.0 0.0 0.0 0.0 0.0 0.0 0.0 0.0 0.0 0.0 0.0 0.0 0.0 0.0 0.0 0.0 0.0 0.0 0.0 0.0 0.0
0.0 0.0 0.0 0.0 0.0 0.0 0.0 0.0 0.0 0.0 0.0 0.0 0.0 0.0 0.0 0.0 0.0 0.0 0.0 0.0 0.0 0.0 0.0 0.0 0.0 0.0 0.0 0.0 0.0 0.0 0.0 0.0 0.0 0.0 0.0 0.0 0.0 0.0 0.0 0.0 0.0 0.0 0.0 0.0 0.0
0.0 0.0 0.0 0.0 0.0 0.0 0.0 0.0 0.0 0.0 0.0 0.0 0.0 0.0 0.0 0.0 0.0 0.0 0.0 0.0 0.0 0.0 0.0 0.0 0.0 0.0 0.0 0.0 0.0 0.0 0.0 0.0 0.0 0.0 0.0 0.0 0.0 0.0 0.0 0.0 0.0 0.0 0.0 0.0 0.0
0.0 0.0 0.0 0.0 0.0 0.0 0.0 0.0 0.0 0.0 0.0 0.0 0.0 0.0 0.0 0.0 0.1 0.0 0.0 0.0 0.0 0.0 0.0 0.0 0.0 0.0 0.0 0.0 0.0 0.0 0.0 0.0 0.0 0.0 0.0 0.0 0.0 0.0 0.0 0.0 0.0 0.0 0.0 0.0 0.0
0.0 0.0 0.0 0.0 0.0 0.0 0.0 0.0 0.0 0.0 0.0 0.0 0.0 0.0 0.0 0.0 0.0 0.0 0.0 0.0 0.0 0.0 0.0 0.0 0.0 0.0 0.0 0.0 0.0 0.0 0.0 0.0 0.0 0.0 0.0 0.0 0.0 0.0 0.0 0.0 0.0 0.0 0.0 0.0 0.0
0.0 0.0 0.0 0.0 0.0 0.0 0.0 0.0 0.0 0.0 0.0 0.0 0.0 0.0 0.0 0.4 0.0 0.0 0.0 0.0 0.0 0.0 0.0 0.0 0.0 0.0 0.0 0.0 0.0 0.0 0.0 0.0 0.0 0.0 0.0 0.0 0.0 0.0 0.0 0.0 0.0 0.0 0.0 0.0 0.0
0.0 0.0 0.0 0.0 0.0 0.0 0.0 0.0 0.0 0.0 0.0 0.0 0.0 0.0 0.0 0.0 0.0 0.0 0.0 0.0 0.0 0.0 0.0 0.0 0.0 0.0 0.0 0.0 0.0 0.0 0.0 0.0 0.0 0.0 0.0 0.0 0.0 0.0 0.0 0.0 0.0 0.0 0.0 0.0 0.0
0.0 0.0 0.0 0.0 0.0 0.0 0.0 0.0 0.0 0.0 0.0 0.0 0.0 0.0 0.0 0.0 0.0 0.0 0.0 0.0 0.0 0.0 0.0 0.0 0.0 0.0 0.0 0.0 0.0 0.0 0.0 1.8 0.0 0.0 0.0 0.0 0.0 0.0 0.0 0.0 0.0 0.0 0.0 0.0 0.0
0.0 0.0 0.0 0.0 0.0 0.0 0.0 0.0 0.0 0.0 0.0 0.0 0.0 0.0 0.0 0.0 0.0 0.0 0.0 0.0 0.0 0.0 0.0 0.0 0.0 0.0 0.0 3.7 0.8 1.0 3.4 0.8 0.0 0.0 0.0 0.0 0.0 0.0 0.0 0.0 0.0 0.0 0.0 0.0 0.0
0.0 0.0 0.0 0.0 0.0 0.0 0.0 0.0 0.0 0.0 0.0 0.0 0.0 0.8 0.0 0.0 0.0 0.0 0.0 0.0 0.0 0.0 0.0 0.0 2.4 2.8 1.2 9.4 10.2 2.3 0.8 0.3 0.0 0.0 0.0 0.0 0.0 0.0 0.0 0.0 0.0 0.0 0.0 0.0 0.0
0.0 0.0 0.0 0.0 0.0 0.0 0.0 0.0 0.0 0.0 0.0 0.0 0.0 0.0 0.0 0.0 0.0 0.0 0.0 0.0 0.0 0.0 4.7 1.2 5.5 6.8 3.9 0.1 2.9 3.8 3.7 1.5 0.0 0.0 0.0 0.0 0.0 0.0 0.0 0.0 0.0 0.0 0.0 0.0 0.0
0.0 0.0 0.0 0.0 0.0 0.0 0.0 0.0 0.0 0.0 1.0 0.0 0.0 0.0 0.0 0.0 0.0 0.0 0.0 0.0 0.0 5.0 0.0 5.2 8.3 1.3 0.0 1.7 6.6 3.8 2.4 1.5 0.0 0.0 0.0 0.0 0.0 0.0 0.0 0.0 0.0 0.0 0.0 0.0 0.0
0.0 0.0 0.0 0.0 0.0 0.0 0.0 0.0 0.0 0.0 5.6 0.0 0.0 0.0 0.0 0.0 0.0 0.0 0.0 0.0 0.0 3.2 7.9 4.3 0.4 0.8 2.8 3.1 8.5 5.9 2.0 1.5 3.8 0.9 0.4 0.0 0.0 0.0 0.0 0.0 0.0 0.0 0.0 0.0 0.0
0.0 0.0 0.0 0.0 0.0 0.0 0.0 0.0 0.0 0.0 16.9 1.6 1.3 0.0 0.0 0.0 1.6 0.0 0.0 0.0 1.0 2.7 3.7 3.2 0.0 0.4 1.6 2.9 4.6 13.1 1.2 1.1 2.9 5.3 3.7 0.5 3.3 0.0 0.0 0.0 0.0 0.0 0.0 0.0 0.0
0.0 0.0 0.0 0.0 0.0 0.0 0.0 0.0 0.0 0.0 28.3 4.8 2.5 0.0 0.0 3.9 1.6 0.0 0.0 0.0 2.0 1.7 4.1 10.2 0.2 0.3 1.5 0.5 1.2 5.9 2.5 2.9 5.4 4.9 5.9 1.6 4.8 0.1 0.0 0.0 0.0 0.0 0.0 0.0 0.0
0.0 0.0 0.0 0.0 0.0 0.0 0.0 0.0 0.0 24.5 19.8 12.7 4.0 5.9 6.9 4.0 0.7 0.0 0.0 0.0 0.0 0.7 0.0 0.2 0.0 0.1 2.0 0.0 0.3 0.7 5.4 3.2 6.1 8.2 14.7 1.2 2.1 1.6 0.8 0.0 0.0 0.0 0.0 0.0 0.0
0.0 0.0 0.0 0.0 0.0 0.0 0.0 0.0 28.6 16.5 4.3 13.0 11.3 3.5 7.7 4.9 2.4 2.0 8.6 7.2 3.9 12.4 11.3 6.2 3.8 0.3 1.1 4.6 1.4 5.7 23.1 34.2 31.1 24.8 7.5 2.7 3.6 1.4 0.9 0.0 0.0 0.0 0.0 0.0 0.0
0.0 0.0 0.0 0.0 0.0 0.0 0.0 12.4 16.8 3.5 9.1 7.3 8.7 7.5 10.7 1.5 4.1 5.5 6.1 6.4 3.4 5.6 8.3 10.6 13.0 9.0 4.6 4.3 8.2 13.3 20.5 22.5 14.7 9.9 7.0 4.6 7.8 6.9 0.0 0.0 0.0 0.0 0.0 0.0 0.0
0.0 0.0 0.0 0.0 0.0 0.0 0.0 22.4 7.6 9.2 5.7 11.4 10.3 19.2 11.1 2.4 4.2 15.3 8.0 6.9 7.6 6.1 9.3 4.6 8.7 2.3 1.3 2.2 10.1 12.4 18.0 6.2 10.9 6.3 6.8 7.7 5.5 5.7 0.0 0.0 0.0 0.0 0.0 0.0 0.0
0.0 0.0 0.0 0.0 0.0 0.0 5.3 12.4 3.7 4.1 5.7 8.1 11.5 6.6 12.1 8.6 10.8 9.4 10.2 7.4 3.8 3.0 1.9 7.3 7.3 3.3 0.9 0.0 1.7 5.7 4.3 14.4 17.6 14.6 11.4 3.4 4.0 12.8 7.8 5.2 0.0 0.0 0.2 0.0 0.0
0.0 0.0 0.0 0.0 0.0 0.0 17.9 4.9 1.4 1.6 4.7 5.6 4.3 3.7 1.4 5.8 4.6 6.5 10.2 11.3 5.0 2.3 2.5 4.1 6.3 4.8 0.9 2.7 5.3 6.6 15.1 11.1 10.1 5.8 12.8 6.7 11.0 12.8 14.6 8.9 4.5 1.5 0.4 0.0 0.0
0.0 7.1 0.0 0.0 1.6 6.8 10.1 2.2 1.3 0.0 0.0 1.1 0.1 0.7 1.6 1.3 5.8 6.3 8.9 8.6 2.5 0.8 3.1 4.5 6.5 9.6 6.3 0.7 0.4 3.6 4.7 3.0 14.1 8.0 9.6 9.2 16.4 8.4 15.0 6.7 2.9 1.6 0.0 0.0 0.0
0.0 4.4 0.0 0.0 14.1 5.5 0.0 0.3 0.0 3.2 1.5 0.0 1.7 0.9 0.0 1.6 3.0 2.6 2.9 3.2 0.1 1.4 2.2 3.5 7.6 8.0 7.4 2.1 1.6 5.9 5.1 3.4 4.8 8.7 11.0 16.1 21.1 0.2 0.2 5.9 0.0 1.2 1.4 0.0 0.0
0.0 15.0 0.0 0.0 0.0 0.3 1.0 2.9 2.5 0.0 0.3 0.5 0.6 0.3 0.1 1.3 0.6 0.6 1.2 2.1 0.0 0.0 0.4 0.1 2.5 9.9 9.3 8.8 10.0 9.2 6.5 4.8 12.0 16.3 9.3 14.9 13.1 11.6 8.0 15.3 3.0 3.1 0.0 0.0 0.0
0.1 6.4 0.0 7.5 2.8 0.7 3.4 3.1 3.9 6.5 0.4 0.2 2.6 1.4 3.0 2.7 0.6 0.7 0.6 1.7 2.7 3.1 3.2 2.5 3.9 0.5 2.7 1.1 2.7 9.2 8.4 8.8 15.3 9.6 14.6 10.2 8.6 9.3 12.0 16.1 5.8 4.5 0.0 0.0 0.0
2.9 3.0 0.0 0.0 0.0 0.0 0.1 3.4 4.7 1.1 1.4 0.6 1.3 0.4 1.5 4.8 3.1 2.2 1.4 1.5 2.6 1.9 4.7 3.3 5.0 0.8 4.1 0.0 3.7 6.6 2.8 4.8 6.1 6.3 9.8 6.3 9.1 3.0 1.6 0.8 0.6 0.6 0.1 0.0 0.0
0.0 0.0 1.7 0.0 0.0 0.0 1.1 1.2 0.1 0.7 0.0 0.7 1.3 1.3 0.3 0.4 1.4 1.5 1.0 0.5 1.8 3.2 1.7 2.3 2.8 4.0 8.6 1.4 3.0 5.9 4.2 1.2 3.4 4.3 5.1 6.3 7.1 4.4 4.4 2.8 2.2 1.8 1.5 1.6 1.1